Location: Ebersheim
(48.3033°N, 7.4991°E)
Time: 17:38:13
(UTC+00:00)

Cosmos 2227 Rocket - Pass Details

Date: 27 February 2020
Orbit: 839 x 845 km, 71.0° (Epoch: 31 March)

Event Time Altitude Azimuth Distance (km) Brightness Sun altitude
Rises 19:57:28 0° 330° (NNW) 3,407 6.1 -28.2°
Reaches altitude 10° 19:59:55 10° 328° (NNW) 2,469 5.2 -28.6°
Maximum altitude 20:05:33 70° 246° (WSW) 895 2.3 -29.5°
Enters shadow 20:05:34 70° 246° (WSW) 895 2.3 -29.5°
